Torna al catalogo

CZ-6A DEB

AttivoSSO
NORAD 55528·DEBRIS·🇨🇳 China

Lanciato Nov 11, 2022 da Taiyuan Satellite Launch Center

Loading…

Prossimi Passaggi (prossime 24 ore)

TLE

AggiornatoSource: Space-Track

Epoca: Sep 14, 2026, 14:36 UTC

1 55528U 22151YA  26257.60885544  .00002456  00000-0  59185-3 0  9996
2 55528  98.6256 313.2822 0068411 339.7527  20.0957 14.52790187197015

Traccia CZ-6A DEB in tempo reale con AllMySat

Download on the App Store